TimePST,TemperatureF,Dew PointF,Humidity,Sea Level PressureIn,VisibilityMPH,Wind Direction,Wind SpeedMPH,Gust SpeedMPH,PrecipitationIn,Events,Conditions,WindDirDegrees,DateUTC
12:28 AM,53.6,44.6,72,30.05,10.0,SSW,5.8,-,N/A,,Overcast,200,2012-11-17 08:28:00
12:55 AM,53.1,43.0,69,30.04,10.0,Calm,Calm,-,N/A,,Mostly Cloudy,0,2012-11-17 08:55:00
1:55 AM,53.1,44.1,71,30.03,10.0,Calm,Calm,-,N/A,,Scattered Clouds,0,2012-11-17 09:55:00
2:18 AM,51.8,44.6,76,30.03,10.0,Variable,4.6,-,N/A,,Mostly Cloudy,0,2012-11-17 10:18:00
2:55 AM,51.1,42.1,71,30.02,10.0,East,3.5,-,N/A,,Overcast,100,2012-11-17 10:55:00
3:13 AM,50.0,41.0,71,30.02,10.0,SE,4.6,-,N/A,,Scattered Clouds,130,2012-11-17 11:13:00
3:55 AM,50.0,42.1,74,30.02,9.0,South,4.6,-,N/A,,Scattered Clouds,170,2012-11-17 11:55:00
4:01 AM,50.0,42.8,76,30.03,9.0,SSE,6.9,-,N/A,,Mostly Cloudy,160,2012-11-17 12:01:00
4:55 AM,48.9,41.0,74,30.02,8.0,SSW,3.5,-,N/A,,Overcast,200,2012-11-17 12:55:00
5:55 AM,50.0,42.1,74,30.03,8.0,South,6.9,-,N/A,,Overcast,190,2012-11-17 13:55:00
6:55 AM,54.0,45.0,72,30.05,10.0,SW,9.2,-,N/A,,Overcast,220,2012-11-17 14:55:00
7:04 AM,53.6,46.4,77,30.06,10.0,SW,4.6,-,N/A,,Overcast,220,2012-11-17 15:04:00
7:55 AM,57.9,46.0,65,30.05,10.0,SW,12.7,-,N/A,,Overcast,230,2012-11-17 15:55:00
8:55 AM,61.0,43.0,52,30.06,10.0,WSW,12.7,25.3,0.00,,Overcast,240,2012-11-17 16:55:00
9:55 AM,60.1,45.0,57,30.06,10.0,WSW,18.4,23.0,N/A,,Overcast,250,2012-11-17 17:55:00
10:01 AM,60.8,44.6,55,30.07,10.0,WSW,16.1,23.0,N/A,,Overcast,240,2012-11-17 18:01:00
10:55 AM,62.1,45.0,53,30.04,10.0,SW,17.3,-,N/A,,Mostly Cloudy,220,2012-11-17 18:55:00
11:55 AM,64.0,46.0,52,30.02,10.0,SW,16.1,26.5,N/A,,Partly Cloudy,220,2012-11-17 19:55:00
12:55 PM,64.9,45.0,48,30.00,10.0,WSW,19.6,25.3,N/A,,Mostly Cloudy,240,2012-11-17 20:55:00
1:55 PM,64.0,46.0,52,29.99,10.0,SW,18.4,25.3,N/A,,Partly Cloudy,230,2012-11-17 21:55:00
2:55 PM,63.0,46.0,54,30.00,10.0,WSW,16.1,-,N/A,,Overcast,250,2012-11-17 22:55:00
3:55 PM,60.1,46.9,62,30.01,10.0,West,16.1,-,N/A,,Overcast,260,2012-11-17 23:55:00
4:46 PM,59.0,48.2,67,30.02,10.0,West,17.3,-,N/A,,Overcast,260,2012-11-18 00:46:00
4:55 PM,59.0,48.0,67,30.02,10.0,WSW,13.8,-,N/A,,Overcast,250,2012-11-18 00:55:00
5:17 PM,57.2,48.2,72,30.03,10.0,WSW,13.8,-,N/A,,Overcast,240,2012-11-18 01:17:00
5:55 PM,55.9,48.0,75,30.01,10.0,SW,17.3,23.0,N/A,,Clear,220,2012-11-18 01:55:00
6:55 PM,55.0,46.9,74,30.03,10.0,WSW,18.4,-,N/A,,Clear,240,2012-11-18 02:55:00
7:55 PM,54.0,46.0,75,30.04,10.0,WSW,15.0,-,N/A,,Clear,240,2012-11-18 03:55:00
8:55 PM,54.0,46.0,75,30.04,10.0,WSW,15.0,-,N/A,,Clear,240,2012-11-18 04:55:00
9:55 PM,53.1,46.0,77,30.05,10.0,WSW,16.1,-,N/A,,Clear,250,2012-11-18 05:55:00
10:55 PM,53.1,46.0,77,30.05,10.0,WSW,13.8,-,N/A,,Clear,250,2012-11-18 06:55:00
11:55 PM,54.0,46.0,75,30.05,10.0,WSW,17.3,-,N/A,,Clear,240,2012-11-18 07:55:00